Regional Weather Roundup
Issued by NWS

Home | Current Version | Previous Version | Graphics & Text | Print | Product List | Glossary On
Versions: 1 2 3 4 5 6 7 8 9 10 11 12 13 14 15 16 17 18 19 20 21 22 23 24 25 26 27 28 29 30 31 32 33 34 35 36 37 38 39 40 41 42 43 44 45 46 47 48 49 50
000
ASUS43 KIND 281659
RWRIN

WEATHER ROUNDUP FOR INDIANA
NATIONAL WEATHER SERVICE INDIANAPOLIS IN
100 PM EDT SUN MAY 28 2017

NOTE: "FAIR" INDICATES FEW OR NO CLOUDS BELOW 12,000 FEET WITH NO
SIGNIFICANT WEATHER AND/OR OBSTRUCTIONS TO VISIBILITY.

* - STATION DOES NOT REPORT WEATHER SUCH AS PRECIPITATION OR FOG.

+ - STATION NOT QUALITY CONTROLLED BY THE NATIONAL WEATHER SERVICE.
    USE DATA WITH CAUTION...ESPECIALLY DEWPOINT AND RELATIVE
    HUMIDITY OBSERVATIONS.

INZ001>003-010>013-019-020-281800-
NORTHWEST INDIANA

CITY           SKY/WX    TMP DP  RH WIND       PRES   REMARKS
GARY /AIRPORT/ PTSUNNY   68  59  73 N13       29.75R HAZE
MICHIGAN CITY+ CLOUDY    70  63  78 NW9       29.74F
MONTICELLO +   CLOUDY    72  67  83 W7        29.73S
RENSSELAER +   CLOUDY    75  61  60 NW8       29.73S
VALPARAISO     PTSUNNY   75  66  73 N9G16     29.73F

$$

LMZ046-743>745-281800-
SOUTHERN LAKE MICHIGAN

STATION/POSITION TIME  TEMP    WIND        PRES    WAVE
                       AIR SEA DIR/SP/G            HT
                 (UTC) (F)     (DEG/KT/KT) (MB)    (FT)
BURNS HARBOR     1630   59      30/  6/  8 1007.8R
MICHIGAN CITY    1630   58     330/  2/  5   N/A
5NW MICH CITY    1650   56 56  350/ 10/ 12   N/A     1

$$

INZ004-005-014>016-021>024-281800-
NORTH CENTRAL INDIANA

CITY           SKY/WX    TMP DP  RH WIND       PRES   REMARKS
GOSHEN         PTSUNNY   74  62  66 VRB5      29.72F
SOUTH BEND     PTSUNNY   73  63  70 W9        29.72S

$$

INZ006>009-017-018-025>027-281800-
NORTHEAST INDIANA

CITY           SKY/WX    TMP DP  RH WIND       PRES   REMARKS
ANGOLA *+      MOSUNNY   73  66  78 S3        29.72F
FORT WAYNE     CLOUDY    73  66  78 SW8       29.73S
KENDALLVILLE + PTSUNNY   76  64  65 SW6       29.73F

$$

INZ028-029-035-036-043>045-051>053-281800-
WEST CENTRAL INDIANA

CITY           SKY/WX    TMP DP  RH WIND       PRES   REMARKS
GREENCASTLE +  CLOUDY    72  61  68 SW6       29.79R
LAFAYETTE      CLOUDY    73  66  78 SW7       29.73S
TERRE HAUTE    CLOUDY    72  61  68 W15       29.78S

$$

INZ030>032-037>040-046>048-054>057-064-065-281800-
CENTRAL INDIANA

CITY           SKY/WX    TMP DP  RH WIND       PRES   REMARKS
COLUMBUS       CLOUDY    72  59  64 SW13      29.79S
INDIANAPOLIS   PTSUNNY   74  63  68 SW21      29.76S
-EAGLE CREEK   PTSUNNY   75  63  66 W9G17     29.75S
KOKOMO +       PTSUNNY   75  65  70 SW13      29.74F
SHELBYVILLE    CLOUDY    73  60  63 SW15      29.77R

$$

INZ033-034-041-042-049-050-058-059-281800-
EAST CENTRAL INDIANA

CITY           SKY/WX    TMP DP  RH WIND       PRES   REMARKS
MUNCIE         PTSUNNY   74  62  66 SW10      29.74F
RICHMOND +     CLOUDY    72  61  68 SW16G25   29.79S

$$

INZ060-061-067>069-081>083-085>088-281800-
SOUTHWEST INDIANA

CITY           SKY/WX    TMP DP  RH WIND       PRES   REMARKS
EVANSVILLE     CLOUDY    71  61  70 W16G22    29.83S
HUNTINGBURG *+ CLOUDY    70  62  76 SW13      29.83R

$$

INZ062-063-066-070>080-084-089>092-281800-
SOUTH CENTRAL AND SOUTHEAST INDIANA

CITY           SKY/WX    TMP DP  RH WIND       PRES   REMARKS
BLOOMINGTON    CLOUDY    72  60  66 W12       29.79R
MADISON *+     CLOUDY    70  61  73 SW10      29.83F
SEYMOUR +      CLOUDY    72  63  73 SW12G17   29.80S

$$





USA.gov is the U.S. government's official web portal to all federal, state and local government web resources and services.